Weather History for Gaylord, MI

Change the Weather History Date:

Thursday, February 21, 2013

  Actual Average Record
Temperature  
Mean Temperature 14 °F -  
Max Temperature 21 °F 32 °F 52 °F (1983)
Min Temperature 6 °F 14 °F -11 °F (1977)
Degree Days  
Heating Degree Days 52    
Moisture  
Dew Point 7 °F    
Average Humidity 82    
Maximum Humidity 92    
Minimum Humidity 57    
Precipitation  
Precipitation 0.00 in - - ()
Sea Level Pressure  
Sea Level Pressure 30.32 in    
Wind  
Wind Speed 6 mph (NE)    
Max Wind Speed 10 mph    
Max Gust Speed 17 mph    
Visibility 6 miles    
Events Snow    
Averages and records for this station are not official NWS values.
T = Trace of Precipitation, MM = Missing Value Source: NWS Daily Summary

Daily Weather History Graph

Daily Weather History Graph

Search for Another Location

Airport:

Trip Planner

Search our weather history database for the weather conditions in past years. The results will help you decide how hot, cold, wet, or windy it might be!

Date:

Astronomy

Feb. 21, 2013 Rise Set
Actual Time 7:29 AM EST 6:15 PM EST
Civil Twilight 7:00 AM EST 6:45 PM EST
Nautical Twilight 6:25 AM EST 7:19 PM EST
Astronomical Twilight 5:51 AM EST 7:53 PM EST
Moon 2:22 PM EST (2/21) 4:41 AM EST (2/21)
Length of Visible Light 11h 45m
Length of Day
10h 45m
Waxing Gibbous, 83% of the Moon is Illuminated
Feb 21
Waxing Gibbous
Feb 25
Full
Mar 4
Last Quarter
Mar 11
New
Mar 19
First Quarter

Hourly Weather History & Observations

Time (EST) Temp. Windchill Dew Point Humidity Pressure Visibility Wind Dir Wind Speed Gust Speed Precip Events Conditions
12:15 AM 12.2 °F -0.2 °F 8.6 °F 85% 30.19 in 4.0 mi North 9.2 mph - 0.00 in Snow Light Snow
12:53 AM 12.0 °F 1.5 °F 8.1 °F 84% 30.28 in 4.0 mi Variable 6.9 mph - 0.00 in Snow Light Snow
1:09 AM 12.2 °F 1.7 °F 8.6 °F 85% 30.19 in 2.5 mi Variable 6.9 mph - 0.00 in Snow Light Snow
1:20 AM 12.2 °F -0.2 °F 8.6 °F 85% 30.19 in 4.0 mi NNW 9.2 mph 16.1 mph 0.00 in Snow Light Snow
1:53 AM 12.0 °F 1.5 °F 7.0 °F 80% 30.29 in 5.0 mi Variable 6.9 mph - 0.00 in Snow Light Snow
2:03 AM 10.4 °F 0.8 °F 8.6 °F 92% 30.20 in 1.8 mi Variable 5.8 mph - 0.00 in Snow Light Snow
2:15 AM 10.4 °F -2.4 °F 6.8 °F 85% 30.21 in 2.5 mi North 9.2 mph - 0.00 in Snow Light Snow
2:24 AM 10.4 °F - 6.8 °F 85% 30.21 in 3.0 mi Calm Calm - 0.00 in Snow Light Snow
2:53 AM 10.0 °F 0.4 °F 6.1 °F 84% 30.30 in 6.0 mi Variable 5.8 mph - 0.00 in Snow Light Snow
3:53 AM 9.0 °F -2.2 °F 5.0 °F 84% 30.33 in 4.0 mi Variable 6.9 mph - 0.00 in Snow Light Snow
4:51 AM 8.6 °F 2.0 °F 5.0 °F 85% 30.25 in 1.8 mi Variable 3.5 mph - 0.00 in Snow Light Snow
4:53 AM 8.1 °F 1.4 °F 5.0 °F 87% 30.35 in 1.5 mi Variable 3.5 mph - 0.00 in Snow Light Snow
5:09 AM 8.6 °F 0.1 °F 5.0 °F 85% 30.26 in 3.0 mi Variable 4.6 mph - 0.00 in Snow Light Snow
5:53 AM 7.0 °F 0.1 °F 3.9 °F 87% 30.37 in 10.0 mi Variable 3.5 mph - 0.00 in   Overcast
6:31 AM 6.8 °F -4.8 °F 3.2 °F 85% 30.28 in 9.0 mi Variable 6.9 mph - N/A   Overcast
6:53 AM 7.0 °F -1.7 °F 3.9 °F 87% 30.38 in 7.0 mi Variable 4.6 mph - 0.00 in Snow Light Snow
7:49 AM 6.8 °F -2.0 °F 5.0 °F 92% 30.32 in 2.0 mi Variable 4.6 mph - 0.00 in Snow Light Snow
7:53 AM 7.0 °F -1.7 °F 5.0 °F 92% 30.42 in 2.5 mi North 4.6 mph - 0.00 in Snow Light Snow
8:18 AM 8.6 °F -1.3 °F 5.0 °F 85% 30.33 in 3.0 mi North 5.8 mph - 0.00 in Snow Light Snow
8:26 AM 8.6 °F -2.6 °F 5.0 °F 85% 30.34 in 2.5 mi North 6.9 mph - 0.00 in Snow Light Snow
8:37 AM 8.6 °F -1.3 °F 5.0 °F 85% 30.34 in 5.0 mi Variable 5.8 mph - 0.00 in Snow Light Snow
8:53 AM 8.1 °F -0.5 °F 5.0 °F 87% 30.43 in 6.0 mi Variable 4.6 mph - 0.00 in Snow Light Snow
9:53 AM 8.1 °F -4.3 °F 5.0 °F 87% 30.39 in 4.0 mi NNE 8.1 mph 17.3 mph 0.00 in Snow Light Snow
10:14 AM 8.6 °F 0.1 °F 5.0 °F 85% 30.30 in 1.8 mi NNE 4.6 mph 16.1 mph 0.00 in Snow Light Snow
10:32 AM 8.6 °F -1.3 °F 3.2 °F 79% 30.30 in 3.0 mi Variable 5.8 mph 16.1 mph 0.00 in Snow Light Snow
10:45 AM 8.6 °F -4.7 °F 5.0 °F 85% 30.30 in 2.5 mi NE 9.2 mph - 0.00 in Snow Light Snow
10:51 AM 8.6 °F -5.5 °F 3.2 °F 79% 30.30 in 3.0 mi NE 10.4 mph - 0.00 in Snow Light Snow
10:53 AM 9.0 °F -4.2 °F 3.9 °F 80% 30.39 in 3.0 mi NE 9.2 mph - 0.00 in Snow Light Snow
11:53 AM 9.0 °F - 5.0 °F 84% 30.42 in 8.0 mi Calm Calm - 0.00 in   Overcast
12:35 PM 10.4 °F - 6.8 °F 85% 30.33 in 10.0 mi Calm Calm - N/A   Scattered Clouds
12:53 PM 10.9 °F - 6.1 °F 81% 30.42 in 10.0 mi Calm Calm - N/A   Clear
1:53 PM 16.0 °F - 6.1 °F 65% 30.41 in 10.0 mi Calm Calm - N/A   Clear
2:53 PM 18.0 °F 12.7 °F 7.0 °F 62% 30.40 in 10.0 mi Variable 3.5 mph - N/A   Clear
3:53 PM 19.9 °F 13.4 °F 8.1 °F 60% 30.38 in 10.0 mi NNE 4.6 mph - N/A   Clear
4:53 PM 21.0 °F 12.4 °F 8.1 °F 57% 30.36 in 10.0 mi NE 6.9 mph - N/A   Clear
5:53 PM 19.9 °F 13.4 °F 9.0 °F 62% 30.38 in 10.0 mi ENE 4.6 mph - N/A   Clear
6:53 PM 18.0 °F 9.8 °F 8.1 °F 65% 30.39 in 10.0 mi ENE 5.8 mph - N/A   Clear
7:53 PM 15.1 °F 4.2 °F 8.1 °F 74% 30.39 in 10.0 mi ENE 8.1 mph - N/A   Clear
8:53 PM 12.0 °F 1.5 °F 8.1 °F 84% 30.39 in 10.0 mi ENE 6.9 mph - N/A   Clear
9:43 PM 12.2 °F - 8.6 °F 85% 30.31 in 10.0 mi Calm Calm - N/A   Mostly Cloudy
10:36 PM 12.2 °F 4.3 °F 8.6 °F 85% 30.29 in 10.0 mi Variable 4.6 mph - N/A   Overcast
10:49 PM 14.0 °F 5.1 °F 10.4 °F 86% 30.28 in 9.0 mi East 5.8 mph - N/A   Overcast
10:53 PM 14.0 °F 5.1 °F 10.9 °F 88% 30.36 in 8.0 mi East 5.8 mph - N/A   Overcast
11:14 PM 15.8 °F 10.2 °F 12.2 °F 86% 30.26 in 4.0 mi Variable 3.5 mph - N/A   Overcast
11:53 PM 16.0 °F 8.8 °F 14.0 °F 92% 30.32 in 6.0 mi ENE 4.6 mph - N/A   Overcast